Preview of NWS' New Version of Forecast
This preview is not operational and should not be used for support decisions.
Latest weather observations around

Stillwater, Stillwater Regional Airport (KSWO)

Using English Units (Switch to International System of Units)
Date/ Time (CDT) Wind (mph) Vis. (mi) Weather Sky Cond. Temp (°F) Rel. Humidity Wind Chill (°F) Heat Index (°F) Pressure Precip. (in)
Air Dwpt 6 hour Altimeter (inHg) Sea level (inHg) 1 hr 3 hr 6 hr
Max Min
Aug 25 09:53 WSW 7 4 Rain and Fog/Mist BKN110 68 65     90%     29.96 29.93 0 0  
Aug 25 09:48 SW 3 4 Rain and Fog/Mist BKN110 68 64     88%     29.95   0    
Aug 25 09:33 Calm 4 Thunderstorms and Rain and Fog/Mist BKN110 69 65     87%     29.96   0    
Aug 25 08:53 ENE 5 7 Light Rain FEW120 68 65     90%     29.92 29.89 0    
Aug 25 08:41 NNE 5 10 Light Rain FEW120 68 64     87%     29.94   0    
Aug 25 08:11 NNE 7 10 Light Rain SCT029 SCT080 BKN110 68 64     87%     29.93   0    
Aug 25 07:53 NNW 10 10 Light Rain FEW011 SCT021 OVC029 69 64     84%     29.98 29.94 0    
Aug 25 06:53 ENE 7 10 Cloudy BKN023 OVC029 76 71     85%   77 29.86 29.82     0
Aug 25 06:36 ESE 9 10 Cloudy FEW008 BKN024 OVC029 76 71     85%   77 29.84        
Aug 25 05:53 ESE 9 10 Mostly Cloudy BKN010 75 71     88%   76 29.84 29.8      
Aug 25 05:48 ESE 9 10 Mostly Cloudy BKN010 75 72     89%   77 29.83        
Aug 25 04:53 SE 14 10 Clear CLR 76 70     82%   77 29.82 29.78 0    
Aug 25 03:53 SE 11 10 Light Rain FEW009 SCT034 75 71     88%   76 29.86 29.82 0 0  
Aug 25 03:46 SSE 14 10 Light Rain FEW007 SCT034 BKN110 75 71     88%   76 29.86   0    
Aug 25 02:53 S 7 10 Clear CLR 74 70     87%   75 29.91 29.87      
Aug 25 01:53 SE 7 10 Mostly Cloudy BKN009 74 69     85%   75 29.91 29.87      
Aug 25 01:44 SSE 3 10 Mostly Cloudy BKN009 75 70     84%   76 29.92        
Aug 25 00:53 SE 9 10 Clear CLR 75 70     84%   76 29.93 29.89      
Aug 24 23:53 SE 9 10 Clear CLR 76 70     82%   77 29.93 29.89      
Aug 24 22:53 SE 8 10 Clear CLR 77 69     77%   78 29.93 29.89      
Aug 24 21:53 SSE 9 10 Clear CLR 79 70     74%   82 29.94 29.9      
Aug 24 20:53 SSE 10 10 Clear CLR 82 72     72%   87 29.93 29.9      
Aug 24 19:53 SE 7 10 Mostly Clear FEW030 84 73     70%   90 29.92 29.88      
Aug 24 18:53 SE 9 10 Mostly Clear FEW029 86 73     65%   93 29.91 29.87      
Aug 24 17:53 SE 13 10 Partly Cloudy FEW028 SCT035 87 73     63%   95 29.91 29.87      
Aug 24 16:53 ESE 9 10 Mostly Clear FEW027 88 73     61%   96 29.91 29.87      
Aug 24 15:53 6 10 Mostly Clear FEW018 86 73     65%   93 29.93 29.89      
Aug 24 15:20 E 5 10 Mostly Cloudy SCT030 BKN037 84 73     70%   90 29.94        
Aug 24 14:53 E 6 10 Cloudy FEW015 BKN024 OVC030 83 73     72%   89 29.96 29.92      
Aug 24 14:20 ESE 5 10 Mostly Cloudy SCT011 BKN025 83 73     72%   89 29.97        
Aug 24 13:53 SE 5 10 Cloudy BKN011 BKN018 OVC026 81 73     77%   86 29.98 29.94      
Aug 24 13:20 SE 6 10 Cloudy OVC010 79 72     79%   82 29.98        
Aug 24 12:53 ESE 5 10 Cloudy OVC009 79 72     79%   82 29.99 29.95      
Aug 24 11:53 SSE 8 10 Cloudy OVC008 78 71     79%   79 29.99 29.95      
Aug 24 10:53 SE 8 10 Cloudy OVC007 77 71     82%   78 29.99 29.96      
Aug 24 09:53 SE 7 10 Cloudy OVC006 76 71     85%   77 29.99 29.96      
Aug 24 08:53 ESE 8 10 Cloudy OVC005 74 70     87%   75 29.98 29.95      
Aug 24 07:53 E 10 10 Cloudy OVC008 73 69     87%   74 29.98 29.94      
Aug 24 07:18 E 6 10 Cloudy OVC008 72 69     91%   73 29.98        
Aug 24 06:53 E 7 10 Cloudy OVC011 72 69     91%   73 29.98 29.94      
Aug 24 06:01 E 3 10 Cloudy BKN013 OVC050 72 69     91%   73 29.99        
Aug 24 05:53 E 3 10 Cloudy SCT013 BKN050 OVC065 72 69     91%   73 29.99 29.95      
Aug 24 04:53 ENE 5 10 Mostly Cloudy FEW013 BKN070 72 68     87%   73 29.98 29.94      
Aug 24 03:53 NNE 3 10 Mostly Clear FEW070 71 68     90%   72 29.99 29.95      
Aug 24 02:53 NE 3 10 Clear CLR 72 68     87%   73 29.98 29.94      
Aug 24 01:53 E 3 10 Clear CLR 72 69     91%   73 30 29.96      
Aug 24 00:53 SSE 7 10 Clear CLR 72 68     87%   73 30 29.96      
Aug 23 23:53 ESE 9 10 Clear CLR 73 69     87%   74 29.99 29.96      
Aug 23 22:53 E 9 10 Partly Cloudy SCT055 73 68     84%   74 29.99 29.96      
Aug 23 21:53 E 6 10 Mostly Cloudy BKN050 74 68     82%   75 30.01 29.98      
Aug 23 20:53 E 8 10 Clear CLR 75 68     79%   76 29.98 29.94      
Aug 23 19:53 E 10 10 Clear CLR 77 68     74%   78 29.96 29.92      
Aug 23 18:53 E 8 10 Mostly Cloudy FEW026 BKN033 80 68     67%   83 29.95 29.91      
Aug 23 17:53 ESE 11 10 Clear CLR 83 68     61%   86 29.94 29.9      
Aug 23 17:00 E 10 10 Mostly Cloudy FEW030 BKN047 84 68     59%   87 29.95        
Aug 23 16:53 ESE 10 10 Cloudy BKN027 BKN032 OVC047 84 68     59%   87 29.95 29.91      
Aug 23 15:53 SE 8 10 Mostly Cloudy BKN025 84 70     63%   88 29.96 29.92      
Aug 23 15:37 SE 8 10 Mostly Cloudy BKN023 84 69     61%   88 29.96        
Aug 23 14:53 ESE 9 10 Cloudy SCT022 BKN047 OVC060 81 69     67%   84 29.97 29.93      
Aug 23 14:40 ESE 9 10 Mostly Cloudy FEW022 BKN047 82 68     63%   85 29.97        
Aug 23 14:18 SE 10 10 Mostly Cloudy BKN021 83 70     65%   87 29.98        
Aug 23 13:53 E 10 10 Clear CLR 83 69     63%   87 29.98 29.94      
Aug 23 12:53 E 7 10 Cloudy FEW017 OVC048 81 69     67%   84 30 29.96     0
Aug 23 12:22 ESE 8 10 Partly Cloudy SCT013 79 69     72%   80 30        
Aug 23 11:53 ESE 6 10 Mostly Cloudy BKN011 78 68     71%   79 30 29.97      
Aug 23 10:53 ENE 6 10 Cloudy OVC007 73 69     87%   74 30.01 29.98      
Aug 23 10:06 SE 3 10 Mostly Cloudy BKN007 BKN075 73 69     87%   74 29.99        
Aug 23 09:53 ESE 6 10 Mostly Cloudy SCT007 BKN075 73 68     84%   74 29.99 29.95   0  
Aug 23 09:51 E 5 10 Mostly Cloudy FEW007 BKN075 73 70     89%   75 29.98        
Aug 23 08:53 S 8 10 Cloudy BKN065 BKN080 OVC110 72 68     87%   73 29.97 29.94      
Aug 23 08:35 S 13 10 Mostly Cloudy FEW006 SCT060 BKN080 72 69     91%   73 29.97        
Aug 23 08:19 SSE 11 10 Mostly Cloudy SCT005 BKN060 BKN110 72 69     91%   73 29.99        
Aug 23 07:53 SE 14 10 Cloudy BKN005 OVC060 72 69     91%   73 29.98 29.94 0    
Aug 23 07:38 SE 15 10 Thunderstorms and Rain BKN005 OVC060 72 69     91%   73 29.97   0    
Aug 23 07:19 ESE 7 10 Light Rain BKN005 BKN046 OVC060 73 70     90%   74 29.97   0    
Aug 23 06:53 SE 10 10 Light Rain FEW005 BKN048 OVC060 72 69     91%   73 29.96 29.92 0   1
Aug 23 06:34 ESE 11 3 Rain and Fog/Mist FEW005 SCT026 OVC047 72 69     91%   73 29.95   0    
Aug 23 06:30 ESE 10 2 Heavy Rain and Fog/Mist SCT005 BKN024 OVC055 72 69     91%   73 29.95   0    
Aug 23 06:26 SSE 9 1.75 Thunderstorms and Heavy Rain and Fog/Mist BKN005 BKN024 OVC048 72 70     93%   73 29.95   0    
Aug 23 06:22 S 8 2.5 Thunderstorms and Heavy Rain and Fog/Mist SCT005 BKN027 OVC048 72 69     91%   73 29.96   0    
Aug 23 06:17 SE 10 5 Thunderstorms and Rain and Fog/Mist SCT005 OVC050 72 69     91%   73 29.95   0    
Aug 23 05:53 ESE 8 10 Thunderstorms BKN004 BKN041 OVC050 73 70     90%   74 29.95 29.91 0    
Aug 23 05:49 E 7 10 Cloudy BKN004 BKN041 OVC050 73 70     89%   75 29.95   0    
Aug 23 05:29 ESE 9 9 Light Rain BKN004 OVC055 72 70     93%   73 29.93   0    
Aug 23 05:19 E 10 5 Thunderstorms and Rain and Fog/Mist BKN004 OVC060 72 69     91%   73 29.93   0    
Aug 23 05:01 ESE 11 10 Thunderstorms BKN005 BKN022 BKN060 72 69     91%   73 29.94   0    
Aug 23 04:53 ESE 13 10 Thunderstorms and Rain SCT005 BKN060 OVC095 72 69     91%   73 29.94 29.9 0    
Aug 23 04:51 SE 11 9 Thunderstorms and Rain SCT005 BKN060 OVC075 72 70     94%   73 29.94   0    
Aug 23 04:36 SE 14 2 Thunderstorms and Heavy Rain and Fog/Mist SCT003 BKN029 OVC065 72 69     91%   73 29.93   0    
Aug 23 04:30 ESE 10 4 Thunderstorms and Heavy Rain and Fog/Mist SCT003 BKN030 OVC060 72 69     91%   73 29.94   0    
Aug 23 04:23 E 7 7 Thunderstorms and Rain SCT030 SCT048 OVC060 72 69     91%   73 29.94   0    
Aug 23 04:16 SE 8 10 Light Rain SCT032 SCT043 OVC060 72 69     91%   73 29.94   0    
Aug 23 04:06 SE 9 6 Thunderstorms and Rain and Fog/Mist SCT030 SCT050 OVC060 72 69     91%   73 29.93   0    
Aug 23 03:55 ESE 10 3 Thunderstorms and Heavy Rain and Fog/Mist FEW004 BKN027 OVC060 72 69     91%   73 29.93   0    
Aug 23 03:53 SE 9 2.5 Heavy Rain and Fog/Mist FEW004 BKN030 OVC060 72 69     91%   73 29.93 29.89 0 1  
Aug 23 03:34 S 3 1.5 Heavy Rain and Fog/Mist BKN005 BKN020 OVC055 72 69     91%   73 29.94   0    
Aug 23 03:28 SSE 8 10 Light Rain BKN005 BKN055 BKN080 72 69     91%   73 29.94   0    
Aug 23 03:19 ESE 5 10 Light Rain BKN005 BKN075 72 69     91%   73 29.93   0    
Aug 23 02:53 S 6 10 Mostly Cloudy SCT005 BKN085 BKN110 72 69     91%   73 29.93 29.89 0    
Aug 23 02:43 SSE 7 10 Cloudy FEW005 OVC085 72 69     91%   73 29.93   0    
Aug 23 02:24 ESE 11 10 Cloudy BKN080 OVC095 72 68     87%   73 29.94   0    
Aug 23 02:09 ESE 10 10 Mostly Cloudy BKN085 72 69     91%   73 29.94   0    
Aug 23 02:00 ESE 6 10 Mostly Cloudy FEW004 BKN085 72 69     91%   73 29.94   0    
Aug 23 01:53 SSE 5 10 Light Rain OVC085 72 69     91%   73 29.94 29.91 0    
Aug 23 01:39 ESE 7 10 Light Rain SCT038 OVC075 71 69     93%   72 29.95   0    
Aug 23 01:24 E 9 3 Thunderstorms and Heavy Rain and Fog/Mist BKN044 OVC070 71 68     90%   72 29.94   0    
Aug 23 01:14 ENE 6 1.75 Thunderstorms and Heavy Rain and Fog/Mist BKN040 OVC070 71 68     90%   72 29.95   0    
Aug 23 00:53 E 5 10 Thunderstorms and Rain OVC070 72 68     87%   73 29.95 29.91 0   1
Aug 23 00:31 SE 6 5 Heavy Rain and Fog/Mist FEW019 BKN070 OVC100 72 68     87%   73 29.95   0    
Aug 22 23:53 E 5 10 Cloudy OVC095 72 68     87%   73 29.93 29.9      
Aug 22 22:53 NNE 5 10 Mostly Cloudy BKN070 BKN100 72 68     87%   73 29.93 29.9      
Aug 22 21:53 E 6 10 Clear CLR 72 68     87%   73 29.94 29.9 0 1  
Aug 22 21:35 ESE 8 10 Partly Cloudy FEW010 SCT023 72 68     87%   73 29.94   0    
Aug 22 21:23 SSE 7 10 Thunderstorms and Rain FEW009 BKN021 72 68     87%   73 29.93   0    
Aug 22 21:16 ENE 6 2.5 Thunderstorms and Rain and Fog/Mist FEW009 SCT016 OVC023 72 68     87%   73 29.94   0    
Aug 22 21:02 SSE 16 1 Thunderstorms and Heavy Rain BKN016 OVC026 76 71     85%   77 29.94   0    
Aug 22 20:57 SE 10 2.5 Heavy Rain and Fog/Mist BKN016 BKN028 OVC090 76 72     88%   77 29.94   0    
Aug 22 20:53 SSE 5 8 Light Rain BKN016 BKN028 OVC090 77 72     84%   78 29.94 29.9 0    
Aug 22 19:53 NE 8 10 Light Rain FEW070 BKN100 79 71     77%   82 29.9 29.86 0    
Aug 22 18:53 ENE 13 10 Mostly Cloudy BKN100 BKN120 82 71     69%   86 29.87 29.83     0
Aug 22 17:53 E 9 10 Partly Cloudy SCT110 84 71     65%   89 29.89 29.85      
Aug 22 16:53 E 8 10 Mostly Clear FEW110 84 71     65%   89 29.9 29.86 0    
Aug 22 15:53 E 9 10 Mostly Cloudy BKN110 84 70     63%   88 29.93 29.88      
Aug 22 14:53 SE 3 10 Clear CLR 83 69     63%   87 29.95 29.91      
Aug 22 13:53 Calm 10 Mostly Cloudy BKN100 BKN120 83 68     61%   86 29.97 29.92      
Aug 22 12:53 Calm 10 Clear CLR 81 69     67%   84 29.97 29.93     0
Aug 22 11:53 ENE 5 10 Mostly Cloudy SCT018 BKN090 79 69     72%   80 30 29.96      
May 15 09:33 NW 10 10 Mostly Cloudy BKN021 70 61     73%     30.04        
May 15 03:53 ESE 13 10 Clear CLR 67 60     79%     29.94 29.89      
May 14 23:53 SSE 9 10 Clear CLR 78 66     67%   79 29.83 29.78      
May 14 09:53 S 16 10 Clear CLR 82 66     58%   84 29.91 29.87      
May 12 02:53 S 21 10 Clear and Windy   77 59     54%   77 29.8 29.75      
May 11 17:53   10 Clear CLR 86 60     42%   86 29.73 29.69      
May 11 11:53   10 Clear CLR 81 61     51%   82 29.79 29.75      
Jun 11 20:53 SSE 13 10 Clear CLR 80 65     60%   82 29.83 29.78      
Jun 11 14:53 S 22 10 Clear and Windy   90 65     44%   92 29.84 29.8      
Jun 11 07:53 S 16 10 Clear CLR 74 65     74%   74 29.85 29.81      
Jun 10 20:53 S 14 10 Clear CLR 81 65     58%   83 29.78 29.73      
Jun 10 15:53 SSE 20 10 Clear and Windy CLR 89 67     48%   92 29.77 29.73      
Jun 10 07:53 S 13 10 Clear CLR 72 63     73%   72 29.83 29.79      
Jun 07 23:53 NW 3 10 Clear CLR 59 56     90%     30.04 30.01